TimeHST,TemperatureF,Dew PointF,Humidity,Sea Level PressureIn,VisibilityMPH,Wind Direction,Wind SpeedMPH,Gust SpeedMPH,PrecipitationIn,Events,Conditions,WindDirDegrees,DateUTC
12:53 AM,70.0,66.9,90,30.01,10.0,WSW,6.9,-,0.02,,Overcast,240,2013-09-30 10:53:00
1:53 AM,70.0,66.0,87,29.99,10.0,WSW,5.8,-,N/A,,Scattered Clouds,240,2013-09-30 11:53:00
2:53 AM,70.0,64.9,84,29.98,10.0,Calm,Calm,-,N/A,,Mostly Cloudy,0,2013-09-30 12:53:00
3:53 AM,70.0,66.0,87,29.98,10.0,SW,4.6,-,N/A,,Overcast,220,2013-09-30 13:53:00
4:53 AM,70.0,66.0,87,29.99,10.0,Calm,Calm,-,N/A,,Mostly Cloudy,0,2013-09-30 14:53:00
5:53 AM,70.0,64.9,84,30.00,10.0,South,3.5,-,N/A,,Mostly Cloudy,180,2013-09-30 15:53:00
6:53 AM,71.1,66.0,84,30.02,10.0,West,4.6,-,0.00,Rain,Light Rain,260,2013-09-30 16:53:00
7:53 AM,71.1,68.0,90,30.04,9.0,SW,6.9,-,0.02,,Overcast,220,2013-09-30 17:53:00
8:53 AM,72.0,69.1,91,30.05,10.0,WSW,8.1,-,0.00,,Mostly Cloudy,240,2013-09-30 18:53:00
9:53 AM,78.1,66.9,68,30.05,10.0,SSE,8.1,-,N/A,,Mostly Cloudy,150,2013-09-30 19:53:00
10:53 AM,80.6,68.0,65,30.04,10.0,SSW,5.8,-,0.00,,Mostly Cloudy,210,2013-09-30 20:53:00
11:44 AM,82.0,66.9,60,30.02,10.0,SE,12.7,-,N/A,,Scattered Clouds,130,2013-09-30 21:44:00
11:53 AM,82.0,66.9,60,30.01,10.0,ESE,5.8,-,0.00,Rain,Light Rain,120,2013-09-30 21:53:00
12:53 PM,82.0,66.0,58,29.99,10.0,ESE,16.1,-,0.00,,Mostly Cloudy,110,2013-09-30 22:53:00
1:53 PM,82.0,68.0,62,29.98,10.0,ESE,12.7,-,N/A,,Mostly Cloudy,110,2013-09-30 23:53:00
2:53 PM,81.0,68.0,65,29.97,10.0,SE,9.2,-,N/A,,Mostly Cloudy,140,2013-10-01 00:53:00
3:53 PM,80.1,73.0,79,29.96,10.0,East,10.4,-,N/A,,Mostly Cloudy,100,2013-10-01 01:53:00
4:53 PM,79.0,73.0,82,29.97,10.0,SE,4.6,-,N/A,,Overcast,130,2013-10-01 02:53:00
5:53 PM,77.0,73.9,90,29.99,4.0,Calm,Calm,-,0.00,Rain,Light Rain,0,2013-10-01 03:53:00
6:53 PM,75.0,73.9,96,30.01,10.0,West,4.6,-,0.01,Rain,Light Rain,270,2013-10-01 04:53:00
7:09 PM,75.0,73.9,96,30.02,8.0,WNW,4.6,-,0.00,Rain,Light Rain,300,2013-10-01 05:09:00
7:30 PM,73.9,73.0,97,30.03,7.0,West,11.5,-,0.00,Rain,Rain,260,2013-10-01 05:30:00
7:38 PM,73.9,73.0,97,30.03,10.0,West,10.4,-,0.01,Rain,Light Rain,270,2013-10-01 05:38:00
7:53 PM,73.9,73.0,97,30.05,4.0,ENE,5.8,-,0.03,Rain,Rain,70,2013-10-01 05:53:00
8:53 PM,73.0,73.0,100,30.06,10.0,West,9.2,-,0.11,,Overcast,260,2013-10-01 06:53:00
9:53 PM,73.0,71.1,93,30.06,10.0,WSW,6.9,-,0.00,,Overcast,250,2013-10-01 07:53:00
10:53 PM,73.0,70.0,90,30.05,10.0,SSW,6.9,-,N/A,,Overcast,210,2013-10-01 08:53:00
11:53 PM,72.0,66.0,81,30.05,10.0,WSW,6.9,-,0.02,,Overcast,240,2013-10-01 09:53:00